Find Starlink 2701

NORAD ID: 48656 Int'l Des: 2021-044 Owner: SPXS Country: US Constellation: starlink operational
LEOCIRCULAR

Live-Position

3D-Globus wird geladen...

Über Starlink 2701

Beschreibung wird geladen...

Nächste Überflüge

Passes for default location (London). Set your location on the main map for personalized predictions.

Höhenverlauf

Loading altitude history...

Zweizeiliger Elementsatz

1 48656U 21044U 26110.46762780 .00002872 00000-0 10424-3 0 9993
2 48656 53.1604 279.6814 0001813 106.8927 253.2273 15.31719045270226
Epoch: 20. Apr. 2026 • Age: 7 hours

Aktueller Status

Höhe 486.3 km
Geschwindigkeit 7.62 km/s
Subsatellitenpunkt -44.04°S, 17.55°E
Startdatum 26. Mai 2021
Alter 4.8 years
Typ internet

Technische Details

Klassifizierung Payload
Masse 260.00 kg
Trockenmasse 248.00 kg
Gesamtmasse 260.00 kg
Länge 0.20 m
Durchmesser 2.80 m
Spannweite 9.00 m
Form Box + pan
Hersteller SPXS
Bus-Typ Starlink
Phasenstatus In Orbit
Besitzer/Staat SPXS/US

Most Searched